Airfield :
LOGIN :

Register | Disclaimer

   EN    FR    IT 

 










Legend :    VFR   Marginal VFR   IFR   Intensive IFR   Very Intensive IFR
Visi :
Ceiling :
>= 8 km
>= 3000ft
5 to 8 km
1000 to 3000 ft
1500m to 5 km
500 to 1000 ft
800 to 1500m
200 to 500 ft
< 800m
< 200 ft
Symbols :   Thunderstorms  Fog  Heavy snow  Heavy precipitations  Wind > 20 kt
SIGMETs :     Misc.  Thunderstorms  Icing  Turbulence  Mountain Waves  Volcanic Ashes







- Airport Elevation : 915 ft
- IATA code : LUG


LSZA - Lugano

CURRENT METAR :
  • 122150Z AUTO VRB02KT 8000 FEW003 OVC050 12/12 Q1027

EXPIRED METARs :
  • 122120Z AUTO VRB01KT 5000 OVC050 12/12 Q1027
  • 122050Z VRB01KT 9000 SCT010 BKN060 12/12 Q1027 NOSIG
  • 122020Z 36002KT 9000 SCT010 BKN060 12/12 Q1027 NOSIG
  • 121950Z 36002KT 8000 SCT010 BKN060 12/12 Q1027 NOSIG
  • 121920Z VRB01KT 8000 SCT010 BKN060 13/12 Q1027 NOSIG

TAF TAF LSZA
Valid from the 12 at 15:00 until the 13 at 00:00 UTC


121425Z 1215/1224 VRB02KT 9999 FEW012 BKN055 OVC080
PROB30
TEMPO 1215/1224 4500 RA BKN012
ATIS : +41 22 417 40 88
No reported NOTAMs for that airfield.



MET'MAP, your aeronautical weather chart ! - Copyright ORBIFLY December 2007 - Disclaimer

ORBIFLY MET'MAP TEAM :

Programming & Development : Alexandra Zaïnal
Concept & Development : Baudouin d'Aumeries
Co-Development & Prog : Marc-Olivier Méhu
Technical & hardware support : Manuel Goepfert

Contact : metmap@orbifly.com




SOURCES & CREDITS :

   NOAA